GW1514 Weather Reports


Display with metric or nautical units.
time (UTC)temp
F
wind
direction
speed
MPH
gust
MPH
rain 1hr
in
rain 24hr
in
rain mn
in
humidity
%
barometer
mb
20260505102117 49 0 5.0 12.0 0.00 0.00 0.00 70 1008.9
20260505100547 49 0 5.0 11.0 0.00 0.00 0.00 70 1009.2
20260505100037 49 0 4.0 15.0 0.00 0.00 0.00 70 1009.0
20260505095527 49 0 6.0 15.0 0.00 0.00 0.00 71 1009.0
20260505095026 49 0 7.0 15.0 0.00 0.00 0.00 71 1008.8
20260505094507 49 0 6.0 15.0 0.00 0.00 0.00 71 1008.8
20260505093956 48 0 9.0 13.0 0.00 0.00 0.00 72 1008.8
20260505093446 49 0 7.0 17.0 0.00 0.00 0.00 72 1008.8
20260505092936 49 0 8.0 17.0 0.00 0.00 0.00 71 1009.0
20260505092426 49 0 11.0 20.0 0.00 0.00 0.00 72 1008.9
20260505091406 49 0 8.0 19.0 0.00 0.00 0.00 71 1009.0
20260505090856 49 0 9.0 17.0 0.00 0.00 0.00 71 1009.0
20260505090346 49 225 13.0 17.0 0.00 0.00 0.00 71 1009.0
20260505085835 48 0 12.0 16.0 0.00 0.00 0.00 71 1009.3
20260505085325 48 315 7.0 16.0 0.00 0.00 0.00 72 1009.5
20260505084306 48 0 2.0 9.0 0.00 0.00 0.00 71 1009.0
20260505083756 48 338 2.0 12.0 0.00 0.00 0.00 71 1009.2
20260505083245 48 338 3.0 12.0 0.00 0.00 0.00 71 1009.2
20260505082225 48 0 5.0 15.0 0.00 0.00 0.00 70 1009.2
20260505081207 48 0 8.0 16.0 0.00 0.00 0.00 71 1009.2
20260505080654 48 0 8.0 16.0 0.00 0.00 0.00 71 1008.9
20260505080146 48 0 8.0 16.0 0.00 0.00 0.00 71 1009.0
20260505075635 48 0 12.0 16.0 0.00 0.00 0.00 71 1009.2
20260505075125 48 315 5.0 17.0 0.00 0.00 0.00 70 1009.0
20260505074615 48 0 11.0 17.0 0.00 0.00 0.00 71 1008.9
20260505074103 48 0 8.0 15.0 0.00 0.00 0.00 72 1009.2
20260505073556 48 0 7.0 15.0 0.00 0.00 0.00 72 1009.2
20260505072534 48 0 8.0 17.0 0.00 0.00 0.00 71 1009.4
20260505072026 48 0 5.0 19.0 0.00 0.00 0.00 71 1009.4
20260505071517 48 0 11.0 20.0 0.00 0.00 0.00 71 1009.4
20260505071004 48 0 11.0 20.0 0.00 0.00 0.00 71 1009.5
20260505070447 48 0 11.0 0.0 0.00 0.00 0.00 72 1009.4
20260505070219 47 0 15.0 0.0 0.00 0.00 0.00 72 1009.4
20260505065701 47 0 11.0 15.0 0.00 0.00 0.00 73 1009.4
20260505065150 47 0 10.0 15.0 0.00 0.00 0.00 72 1009.6
20260505064640 47 0 6.0 17.0 0.00 0.00 0.00 72 1009.7
20260505064129 47 0 6.0 17.0 0.00 0.00 0.00 73 1009.7
20260505063620 47 315 9.0 15.0 0.00 0.00 0.00 73 1009.9
20260505063110 47 0 7.0 17.0 0.00 0.00 0.00 73 1009.8
20260505062559 47 0 11.0 17.0 0.00 0.00 0.00 74 1009.9
20260505062111 47 0 8.0 13.0 0.00 0.00 0.00 74 1009.7
20260505061039 47 0 8.0 13.0 0.00 0.00 0.00 74 1010.0
20260505060016 47 0 7.0 13.0 0.00 0.00 0.00 74 1010.0
20260505055500 46 0 8.0 23.0 0.00 0.00 0.00 74 1010.1
20260505054440 46 0 13.0 20.0 0.00 0.00 0.00 74 1010.0
20260505053933 46 0 14.0 18.0 0.00 0.00 0.00 76 1010.0
20260505053419 46 0 13.0 18.0 0.00 0.00 0.00 77 1010.1
20260505052909 46 0 8.0 14.0 0.00 0.00 0.00 78 1010.0
20260505052359 46 0 8.0 14.0 0.00 0.00 0.00 78 1009.9
20260505051849 46 315 9.0 15.0 0.00 0.00 0.00 79 1010.1
20260505051339 46 0 8.0 15.0 0.00 0.00 0.00 79 1010.3
20260505050831 46 0 9.0 17.0 0.00 0.00 0.00 79 1010.1
20260505050319 46 0 11.0 19.0 0.00 0.00 0.00 79 1010.1
20260505041648 46 0 9.0 19.0 0.00 0.00 0.00 79 1010.4
20260505041137 46 0 11.0 18.0 0.00 0.00 0.00 79 1010.3
20260505040627 46 0 10.0 19.0 0.00 0.00 0.00 78 1010.4
20260505040116 46 0 13.0 19.0 0.00 0.00 0.00 77 1010.4
20260505035607 47 23 15.0 18.0 0.00 0.00 0.00 77 1010.4
20260505035056 47 0 12.0 15.0 0.00 0.00 0.00 77 1010.5
20260505034547 47 0 11.0 15.0 0.00 0.00 0.00 77 1010.5
20260505034037 47 0 6.0 15.0 0.00 0.00 0.00 77 1010.5
20260505033526 47 0 8.0 16.0 0.00 0.00 0.00 77 1010.6
20260505033018 47 0 8.0 16.0 0.00 0.00 0.00 78 1010.7
20260505032509 47 0 5.0 14.0 0.00 0.00 0.00 78 1010.6
20260505030942 47 0 8.0 11.0 0.00 0.00 0.00 77 1010.7
20260505030427 47 0 9.0 11.0 0.00 0.00 0.00 75 1010.8
20260505025927 47 0 6.0 11.0 0.00 0.00 0.00 75 1010.8
20260505025409 47 225 6.0 11.0 0.00 0.00 0.00 74 1010.9
20260505024855 47 0 6.0 14.0 0.00 0.00 0.00 73 1010.8
20260505024347 48 0 5.0 14.0 0.00 0.00 0.00 72 1010.8
20260505023835 48 0 8.0 13.0 0.00 0.00 0.00 72 1010.6
20260505023325 48 0 9.0 11.0 0.00 0.00 0.00 73 1010.6
20260505022815 48 45 9.0 11.0 0.00 0.00 0.00 73 1010.6
20260505022306 48 23 8.0 11.0 0.00 0.00 0.00 72 1010.7
20260505021245 48 0 8.0 11.0 0.00 0.00 0.00 72 1010.6
20260505020734 48 0 6.0 9.0 0.00 0.00 0.00 72 1010.7
20260505015714 48 0 6.0 11.0 0.00 0.00 0.00 72 1010.5
20260505015203 48 0 5.0 11.0 0.00 0.00 0.00 70 1010.7
20260505014654 48 0 8.0 11.0 0.00 0.00 0.00 69 1010.5
20260505014144 48 45 7.0 10.0 0.00 0.00 0.00 70 1010.6
20260505013123 48 0 3.0 11.0 0.00 0.00 0.00 71 1010.4
20260505012616 48 0 10.0 11.0 0.00 0.00 0.00 70 1010.4
20260505012103 48 23 4.0 15.0 0.00 0.00 0.00 70 1010.0
20260505011553 48 0 8.0 15.0 0.00 0.00 0.00 71 1010.0
20260505011043 48 0 5.0 12.0 0.00 0.00 0.00 71 1010.0
20260505010533 48 0 5.0 13.0 0.00 0.00 0.00 70 1010.0
20260505010023 48 45 8.0 13.0 0.00 0.00 0.00 71 1010.0
20260505005513 48 0 9.0 13.0 0.00 0.00 0.00 71 1009.9
20260505005003 48 0 5.0 11.0 0.00 0.00 0.00 70 1010.1
20260505004453 48 0 7.0 11.0 0.00 0.00 0.00 70 1010.0
20260505003943 48 315 4.0 8.0 0.00 0.00 0.00 70 1010.1
20260505003433 49 0 3.0 12.0 0.00 0.00 0.00 69 1009.9
20260505002922 49 0 5.0 13.0 0.00 0.00 0.00 69 1010.0
20260505002412 49 0 7.0 13.0 0.00 0.00 0.00 69 1009.8
20260505001901 49 0 4.0 15.0 0.00 0.00 0.00 68 1010.0
20260505001352 49 0 6.0 19.0 0.00 0.00 0.00 68 1009.9
20260505000842 49 0 8.0 19.0 0.00 0.00 0.00 67 1010.1
20260505000332 49 338 11.0 18.0 0.00 0.00 0.00 67 1009.9
20260504235822 49 315 9.0 14.0 0.00 0.00 0.00 69 1009.8
20260504235311 49 0 8.0 11.0 0.00 0.00 0.00 68 1010.1
20260504234802 49 0 4.0 11.0 0.00 0.00 0.00 69 1010.1
20260504234251 49 0 4.0 13.0 0.00 0.00 0.00 68 1009.9
20260504233741 50 0 8.0 13.0 0.00 0.00 0.00 68 1009.8
20260504233230 50 315 4.0 15.0 0.00 0.00 0.00 68 1009.7
20260504232211 50 315 7.0 17.0 0.00 0.00 0.00 67 1009.8
20260504230641 50 45 10.0 15.0 0.00 0.00 0.00 66 1009.5
20260504230130 50 338 4.0 15.0 0.00 0.00 0.00 66 1009.5
20260504225621 50 315 9.0 17.0 0.00 0.00 0.00 66 1009.6
20260504225110 50 0 6.0 17.0 0.00 0.00 0.00 65 1009.6
20260504224600 51 0 8.0 17.0 0.00 0.00 0.00 65 1009.6
20260504224050 51 315 11.0 17.0 0.00 0.00 0.00 64 1009.4
20260504223540 51 0 8.0 15.0 0.00 0.00 0.00 64 1009.5
20260504223034 51 0 11.0 15.0 0.00 0.00 0.00 64 1009.4
20260504222010 51 315 4.0 17.0 0.00 0.00 0.00 64 1009.3
20260504221459 51 0 6.0 18.0 0.00 0.00 0.00 64 1009.2
20260504220950 51 0 11.0 18.0 0.00 0.00 0.00 64 1009.2
20260504220439 51 45 8.0 18.0 0.00 0.00 0.00 64 1009.2
20260504215929 51 45 9.0 13.0 0.00 0.00 0.00 63 1008.9
20260504215419 51 0 8.0 14.0 0.00 0.00 0.00 63 1009.2
20260504214909 51 0 8.0 14.0 0.00 0.00 0.00 63 1009.0
20260504214401 51 0 11.0 16.0 0.00 0.00 0.00 63 1008.9
20260504213848 51 0 5.0 16.0 0.00 0.00 0.00 62 1009.0
20260504212828 51 45 6.0 15.0 0.00 0.00 0.00 62 1009.3
20260504212318 52 0 4.0 15.0 0.00 0.00 0.00 62 1009.4
20260504211808 52 315 5.0 15.0 0.00 0.00 0.00 61 1009.3
20260504211258 52 0 7.0 11.0 0.00 0.00 0.00 60 1009.3
20260504210748 52 315 8.0 15.0 0.00 0.00 0.00 60 1009.4
20260504210237 52 0 9.0 15.0 0.00 0.00 0.00 59 1009.4
20260504205728 53 0 10.0 13.0 0.00 0.00 0.00 59 1009.3
20260504205219 53 315 8.0 13.0 0.00 0.00 0.00 57 1009.5
20260504204707 53 315 8.0 13.0 0.00 0.00 0.00 56 1009.3
20260504204158 53 315 3.0 15.0 0.00 0.00 0.00 55 1009.5
20260504203648 53 315 5.0 15.0 0.00 0.00 0.00 53 1009.3
20260504203137 54 315 7.0 14.0 0.00 0.00 0.00 51 1009.2
20260504202627 55 315 9.0 15.0 0.00 0.00 0.00 51 1009.3
20260504202117 53 0 13.0 16.0 0.00 0.00 0.00 52 1009.3
20260504201607 53 0 4.0 21.0 0.00 0.00 0.00 51 1009.2
20260504201057 53 315 12.0 22.0 0.00 0.00 0.00 50 1009.3
20260504200546 54 315 15.0 22.0 0.00 0.00 0.00 47 1009.3
20260504200037 56 0 11.0 17.0 0.00 0.00 0.00 44 1009.2
20260504195526 57 0 8.0 17.0 0.00 0.00 0.00 41 1009.3
20260504195017 58 315 7.0 17.0 0.00 0.00 0.00 43 1009.3
20260504194506 58 0 12.0 19.0 0.00 0.00 0.00 42 1009.3
20260504193956 58 0 8.0 19.0 0.00 0.00 0.00 43 1009.3
20260504192936 57 0 8.0 20.0 0.00 0.00 0.00 45 1009.0
20260504192426 58 293 11.0 16.0 0.00 0.00 0.00 43 1009.0
20260504191916 58 0 9.0 15.0 0.00 0.00 0.00 43 1009.3
20260504191406 57 338 8.0 17.0 0.00 0.00 0.00 49 1009.5
20260504190857 55 0 7.0 17.0 0.00 0.00 0.00 50 1009.7
20260504190346 53 0 4.0 18.0 0.00 0.00 0.00 52 1009.7
20260504185834 53 315 10.0 18.0 0.00 0.00 0.00 52 1009.7
20260504185324 53 0 10.0 17.0 0.00 0.00 0.00 51 1009.7
20260504184815 54 0 11.0 16.0 0.00 0.00 0.00 49 1009.8
20260504184304 54 293 8.0 17.0 0.00 0.00 0.00 49 1009.8
20260504183754 54 293 5.0 21.0 0.00 0.00 0.00 49 1009.9
20260504183244 54 315 13.0 21.0 0.00 0.00 0.00 48 1009.9
20260504182734 55 315 11.0 19.0 0.00 0.00 0.00 47 1009.9
20260504182223 55 315 4.0 19.0 0.00 0.00 0.00 45 1009.9
20260504181714 57 338 14.0 19.0 0.00 0.00 0.00 44 1009.8
20260504181204 58 270 9.0 19.0 0.00 0.00 0.00 43 1010.0
20260504180654 58 0 11.0 19.0 0.00 0.00 0.00 43 1010.0
20260504180146 58 315 4.0 21.0 0.00 0.00 0.00 43 1010.1
20260504175634 58 315 13.0 21.0 0.00 0.00 0.00 44 1010.0
20260504175125 58 315 8.0 21.0 0.00 0.00 0.00 44 1010.0
20260504174615 58 293 9.0 21.0 0.00 0.00 0.00 44 1009.9
20260504174103 56 293 15.0 28.0 0.00 0.00 0.00 46 1009.9
20260504173554 56 0 8.0 28.0 0.00 0.00 0.00 45 1010.0
20260504173046 57 315 7.0 15.0 0.00 0.00 0.00 46 1009.8
20260504172532 58 315 8.0 15.0 0.00 0.00 0.00 43 1009.7
20260504172022 58 293 11.0 19.0 0.00 0.00 0.00 45 1009.7
20260504171512 57 315 8.0 20.0 0.00 0.00 0.00 47 1009.6
20260504171002 57 315 11.0 20.0 0.00 0.00 0.00 45 1009.7
20260504170453 58 293 11.0 19.0 0.00 0.00 0.00 47 1009.5
20260504140909 52 0 13.0 21.0 0.00 0.00 0.00 61 1010.3
20260504130707 51 0 11.0 20.0 0.00 0.00 0.00 65 1009.9
20260504130157 51 315 12.0 19.0 0.00 0.00 0.00 65 1009.7
20260504110305 50 0 8.0 16.0 0.00 0.00 0.00 72 1008.1